Dati Storici

Data ora Umidita' aria (%) Temperatura aria (°C) Rad globale (W/m²) Gonioanemometro (°) Tacoanemometro (m/s) Pioggia (mm)
01-11-2012 05:30 92.3 % 9.55 3.577 39.29 5.768 0
01-11-2012 05:20 92.8 % 9.349 3.487 18.359 4.25 0
01-11-2012 05:10 93.3 % 9.241 3.487 25.714 3.681 0
01-11-2012 05:00 93.6 % 9.145 3.077 30.15 7.661 0
01-11-2012 04:50 93.7 % 9.008 2.846 31.357 4.69 0
01-11-2012 04:40 94.1 % 8.885 2.705 14.408 9.596 0
01-11-2012 04:30 94.5 % 8.815 2.731 21.695 2.829 0
01-11-2012 04:20 94.6 % 8.743 2.743 55.371 5.07 0
01-11-2012 04:10 94.2 % 8.711 2.872 15.106 4.857 0
01-11-2012 04:00 94.1 % 8.764 3.039 44.995 5.387 0
01-11-2012 03:50 94.7 % 8.854 3 25.302 4.051 0
01-11-2012 03:40 95.3 % 8.782 2.901 14.797 6.089 0
01-11-2012 03:30 95.4 % 8.784 2.734 42.589 7.499 0
01-11-2012 03:20 95.8 % 8.811 2.747 18.45 5.248 0
01-11-2012 03:10 95.9 % 8.687 2.474 16.766 5.178 0
01-11-2012 03:00 95.8 % 8.654 2.499 20.724 7.484 1
01-11-2012 02:50 95.8 % 8.568 2.666 40.534 6.475 1
01-11-2012 02:40 95.7 % 8.515 2.339 35.498 5.244 1
01-11-2012 02:30 95.6 % 8.502 2.48 13.525 6.316 1
01-11-2012 02:20 95.4 % 8.47 2.39 37.306 3.554 2

I dati sono presentati in modo automatico a scopo informativo. In seguito a verifica i dati possono subire modifiche o essere invalidati e non riportati negli archivi definitivi.